STARLINK-33650, 63321

Orbit data source: Space-Track

STARLINK-33650, 63321 is a payload satellite owned by SpaceX/Seattle (US) in LEO that was launched on Tue, 18 Mar 2025 UTC via an FALCON 9 launch vehicle from the Air Force Eastern Test Range (AFETR). Payload-class satellites include a variety of spacecraft equipped with specific instruments for various scientific and technological missions. These include communications satellites like Starlink; space stations such as the ISS; scientific satellites like the Hubble; Earth observation satellites from companies like Planet Labs, Umbra, and HawkEye 360; GPS; miniature CubeSats for education and research; and military/defense satellites.

Loading next visibility...
Identifier
63321, 2025-057Q
Orbit
LEO
Last TLE update
2 days ago
Origin
Manufacturer
SpaceX/Seattle
Mission
Operational spacecraft
Bus & Motor
STARLINK V2MO, Unknown motor
Mass
575 kg wet, ~530 kg dry
Launch date (UTC)
2025-03-18 (1 month ago)
Launch vehicle
FALCON 9
Launch site
Air Force Eastern Test Range (AFETR)
Object type
Payload
Rocket body
Debris
Shape & HBR
Unknown
Radar Cross Section
Large (>1 m²)

Expand to show TLE details & history

TLE from 2 days ago
0 STARLINK-33650
1 63321U 25057Q   25118.91668981 -.00028443  00000-0 -10021-2 0  9998
2 63321  43.0004   8.3170 0001717 275.6829 293.2703 15.28411023  5819
Epoch: 2025-04-28T22:00Z
Definitive object data (Epoch: 2025-04-28T22:00:01.999Z)
Latitude
-19.41981°
Longitude
23.26871°
Altitude
484.342 km
Speed
7.624 km/s
True Right ascension
14h 01m 36s
True Declination
-19° 18' 29"
Sunlit
Object was in full shadow at TLE epoch
Visualization TLE readout
Latitude
-8.99593°
Longitude
2.04834°
Altitude
482.264 km
Speed
7.626 km/s
Apparent Right ascension
10h 24m 32s
Apparent Declination
-30° 00' 12"
Sunlit
Object is in full shadow
Visualization observer readout
Local Sidereal Time
19:08:40
Azimuth
268.357° W
Elevation
-49.192°
Doppler factor
1
Orbital elements
Apogee altitude
483.686 km
Perigee altitude
481.33 km
Semi-major axis
6,860.645 km
Eccentricity
0.0001717
Inclination
43.0004°
RAAN
8.317°
Arg. of periapsis
275.6829°
True anomaly
293.25222°
Mean anomaly
293.2703°
Eccentric anomaly
293.26126°
Mean motion
3.81941 °/min
BSTAR
-0.0010021
Orbital period
94.26 mins
Loading maneuver chart data...
Loading SW <> Apogee altitude chart data...
Loading historical data...
Loading historical data...
Loading historical data...
Loading historical data...
Loading historical data...
Loading historical data...
Loading historical data...

STARLINK-33650 Visibility forecast

Observer location: undefined°, undefined°

Span
Click to sort rows by Start time (UTC) header in descending order
Start Az.
Max El. time (UTC)
Max El. Az.
Max El.
End time (UTC)
End Az.
5 mins2025-04-30 18:45:28.467Z196.825° SSW2025-04-30 18:48:28.467Z141.494° SSE20.691°2025-04-30 18:50:28.467Z102.041° ESE
6 mins2025-04-30 20:24:28.467Z250.456° W2025-04-30 20:26:28.467Z249.13° W42.932°2025-04-30 20:30:28.467Z72.042° E
6 mins2025-04-30 22:03:28.467Z287.275° WNW2025-04-30 22:06:28.467Z28.166° NE36.333°2025-04-30 22:09:28.467Z75.81° E
6 mins2025-04-30 23:42:28.467Z289.945° WNW2025-04-30 23:45:28.467Z81.938° E43.214°2025-04-30 23:48:28.467Z104.496° ESE
4 mins2025-05-01 01:22:28.467Z246.489° WSW2025-05-01 01:23:28.467Z221.591° SW23.902°2025-05-01 01:26:28.467Z158.63° S
|